Current weather by "City, St" or "zip code"  
 

Current Conditions: PELLSTON

Mostly Cloudy


70.0 F

Last Updated on Jun 17 2024, 10:54 PM EDT
Humidity: 90%
Wind Speed: 0.0 mph
Barometer 29.92 in
Dewpoint: 66.9 F
Visibility: 10.00 mi
Precip: Trace
Heat Index: NA
Wind Chill: NA
Current conditions at:

PELLSTON (KPLN)

Lat: 45.56 Lon: 84.79

active severe weather and emergency alerts image image weather storm and storm spotter reports image weather observation monitoring service image
Active
Alerts
Storm Reports Obs
Monitoring

Sign-up For Email & Text Message Weather Alert Notification Services



Advertise Here

Observation History for PELLSTON


Time Wind
(mph)
Vis
(mi)
Weather Precip (in) Temperature (F) Relative
Humidity
Wind
Chill
(F)
Heat
Index
(F)
Pressure
Air Dwpt altimeter
(in)
sea level
(mb)
Rmks
10:54 PM EDT 0.0 10.00 Mostly Cloudy Trace 70.0 66.9 90% NA NA 29.92 1013.2
09:54 PM EDT 0.0 10.00 Light Rain Trace 71.1 66.9 87% NA 72.0 29.91 1012.9
08:54 PM EDT SE 4.7 10.00 Clear -- 75.9 68.0 76% NA 76.8 29.89 1012.2
07:54 PM EDT S 4.7 10.00 Clear -- 78.1 69.1 74% NA 79.0 29.90 1012.5
06:54 PM EDT SE 9.2 10.00 Clear -- 79.0 66.9 67% NA 79.7 29.90 1012.5
05:54 PM EDT 0.0 10.00 Clear -- NULL 66.0 % NA NA 29.90 1012.5
04:54 PM EDT 6.9 10.00 Clear -- 77.0 64.0 64% NA 77.4 29.91 1012.9
02:54 PM EDT W 6.9 10.00 Mostly Cloudy -- 86.0 72.0 63% NA 92.3 29.89 1012.2
11:54 AM EDT 6.9 10.00 Clear -- 86.0 71.1 61% NA 91.6 29.89 1012.2
08:54 AM EDT 10.3 10.00 Partly Cloudy -- 78.1 66.0 67% NA 78.8 29.88 1011.9
07:54 AM EDT 0.0 10.00 NULL -- 73.9 66.9 79% NA 74.7 29.87 1011.5
06:54 AM EDT 3.4 10.00 Clear -- 71.1 64.9 81% NA 71.6 29.84 1010.5
05:54 AM EDT 0.0 10.00 Clear -- 71.1 64.0 79% NA 71.6 29.82 1009.8
04:54 AM EDT 3.4 10.00 Clear -- 71.1 63.0 76% NA 71.4 29.82 1009.8
03:54 AM EDT SE 6.9 10.00 Clear -- 69.1 64.0 84% NA NA 29.82 1009.8
02:54 AM EDT 5.8 10.00 Clear -- 64.0 62.1 93% NA NA 29.82 1009.8
01:54 AM EDT E 5.8 10.00 Mostly Clear -- 66.0 63.0 90% NA NA 29.82 1009.8
12:54 AM EDT 5.8 10.00 Mostly Clear -- 64.0 62.1 93% NA NA 29.83 1010.2
11:54 PM EDT 0.0 10.00 Partly Cloudy -- 64.9 63.0 93% NA NA 29.83 1010.2
10:54 PM EDT 0.0 10.00 Cloudy -- 66.9 63.0 87% NA NA 29.82 1009.8
09:54 PM EDT 3.4 10.00 Cloudy -- 66.9 63.0 87% NA NA 29.82 1009.8
08:54 PM EDT SE 4.7 10.00 Cloudy -- 66.9 64.0 90% NA NA 29.82 1009.8
07:54 PM EDT 6.9 10.00 Mostly Cloudy 00.02 68.0 64.0 87% NA NA 29.82 1009.8
06:54 PM EDT SE 8.1 10.00 Light Rain 00.02 66.9 64.0 90% NA NA 29.84 1010.5

Regional Weather Observation


PELLSTON (KPLN)

Mostly Cloudy
70.0 F

HARBOR SPRINGS (KMGN)

Clear
72.5 F

CHEBOYGAN (KSLH)

Clear
68.0 F

BEAVER ISLAND (KSJX)

Partly Cloudy
68.9 F

CHARLEVOIX (KCVX)

Clear
73.4 F

GAYLORD (KGLR)

Clear
77.0 F

Advertise Here


Advertise Here